Regional Weather Roundup
Issued by NWS Charleston, WV

Home | Current Version | Previous Version | Graphics & Text | Print | Product List | Glossary On
Versions: 1 2 3 4 5 6 7 8 9 10 11 12 13 14 15 16 17 18 19 20 21 22 23 24 25 26 27
000
ASUS41 KRLX 200610
RWRRLX
West Virginia Regional Weather Roundup
National Weather Service Charleston WV
200 AM EDT SUN MAY 20 2018

Note: "fair" indicates few or no clouds below 12,000 feet with no
significant weather and/or obstructions to visibility.

WVZ003-200700-
Northern Panhandle of West Virginia

CITY           SKY/WX    TMP DP  RH WIND       PRES   REMARKS
WHEELING       CLOUDY    66  64  93 SW6       29.99S
$$

WVZ009-200700-
Northwest West Virginia

CITY           SKY/WX    TMP DP  RH WIND       PRES   REMARKS
PARKERSBURG    MOCLDY    68  65  90 SW7       30.04R
$$

WVZ006-200700-
Western West Virginia

CITY           SKY/WX    TMP DP  RH WIND       PRES   REMARKS
HUNTINGTON     FAIR      67  64  90 S6        30.03S
$$

WVZ015-200700-
West Central West Virginia

CITY           SKY/WX    TMP DP  RH WIND       PRES   REMARKS
CHARLESTON     MOCLDY    64  64 100 CALM      30.04S
$$

WVZ022-031-200700-
North Central West Virginia

CITY           SKY/WX    TMP DP  RH WIND       PRES   REMARKS
CLARKSBURG     CLOUDY    68  64  87 S6        30.03R
MORGANTOWN     MOCLDY    67  66  97 S5        30.02S
$$

WVZ025-035-042-045-200700-
Southern West Virginia

CITY           SKY/WX    TMP DP  RH WIND       PRES   REMARKS
BECKLEY        FAIR      60  59  96 SW5       30.13R
LOGAN          FOG       64  64 100 CALM      30.08S VSB 3/4
BLUEFIELD      FAIR      61  61 100 W5        30.15S
LEWISBURG      CLOUDY    63  62  97 CALM      30.13S
$$

WVZ047-200700-
Northern Mountains of West Virginia

CITY           SKY/WX    TMP DP  RH WIND       PRES   REMARKS
ELKINS         CLOUDY    64  61  90 VRB3      30.08S
$$

WVZ052-200700-
Eastern Panhandle of West Virginia

CITY           SKY/WX    TMP DP  RH WIND       PRES   REMARKS
MARTINSBURG    FOG       60  60 100 CALM      29.99F VSB 1/4
PETERSBURG     LGT RAIN  60  60  98 CALM      30.02F
$$




USA.gov is the U.S. government's official web portal to all federal, state and local government web resources and services.